SL-12 DEB, 41768

Orbit data source: Space-Track

SL-12 DEB, 41768 is space debris in HEO originally from a launch on Mon, 25 Dec 2006 UTC launched from the Tyuratam Missile And Space Complex (TTMTR). Debris objects in space refer to the collection of defunct objects orbiting the Earth. Examples of debris include non-operational satellites, rocket bodies, and fragments generated from explosions, collisions, or faulty payload assembly.

Loading next visibility...
Identifier
41768, 2006-062J
Orbit
HEO
Country
Flag of CISCIS
Related business
Manufacturer
RKKE
Mission
Spacecraft
Bus & Motor
Unknown
Mass
Unknown
Launch date (UTC)
2006-12-25 (19 years ago)
Launch vehicle
Unknown
Launch site
Tyuratam Missile And Space Complex (TTMTR)
Object type
Payload
Rocket body
Debris
Shape & HBR
Unknown shape, 0.1 m
Radar Cross Section
Small (<0.1 m²)

Expand to show TLE details & history
Last TLE update: 6 months ago

TLE from 6 months ago
0 SL-12 DEB
1 41768U 06062J   25230.56629842 -.00000018  00000-0  21173-3 0  9991
2 41768  64.7378  40.8097 5449302 293.7212  19.3761  4.48751807142057
Epoch: 2025-08-18T13:35Z
TLE epoch observation values (Epoch: 2025-08-18T13:35:28.183Z)
Latitude
-0.0001°
Longitude
-130.229°
Altitude
2,578.865 km
Speed
7.959 km/s
True Right ascension
02h 43m 14s
True Declination
0° 00' 00"
Sunlit
Object was in daylight at epoch
Visualization orbit readout
Latitude
Unknown
Longitude
Unknown
Altitude
Unknown
Speed
Unknown
Apparent Right ascension
Unknown
Apparent Declination
Unknown
Sunlit
N/A
Visualization observer readout
Local Sidereal Time
18:59:23
Azimuth
Unknown
Elevation
Unknown
Doppler factor
Unknown
Orbital elements
Apogee altitude
17,607.042 km
Perigee altitude
686.862 km
Semi-major axis
15,525.089 km
Eccentricity
0.54493
Inclination
64.7378°
RAAN
40.8097°
Arg. of periapsis
293.7212°
True anomaly
66.30962°
Mean anomaly
19.3761°
Eccentric anomaly
39.04312°
Mean motion
1.122 °/min
Orbital period
320.86 mins
BSTAR
0.00021173
Loading maneuver chart data...
Computing Atmospheric mass density...
Loading historical data...
Loading historical data...
Loading historical data...
Loading historical data...
Loading historical data...
Loading historical data...
Loading historical data...

Documentation

Showing up to 5 results
|